Mountain View, CA

8:03 PM PST on December 08, 2016 (GMT -0800)
Moffett Federal Air Field

Weather History for KNUQ - June, 2015

Change the Weather History Date:

Friday, June 5, 2015

  Actual Average Record
Temperature  
Mean Temperature 64 °F 65 °F  
Max Temperature 74 °F 75 °F 92 °F (2002)
Min Temperature 53 °F 55 °F 45 °F (1956)
Degree Days  
Heating Degree Days 1    
Month to date heating degree days 6  
Since 1 June heating degree days 6  
Since 1 July heating degree days 1558  
Cooling Degree Days 0    
Month to date cooling degree days 1  
Year to date cooling degree days 19  
Since 1 June cooling degree days 1  
Growing Degree Days 14 (Base 50)    
Moisture  
Dew Point 54 °F    
Average Humidity 71    
Maximum Humidity 89    
Minimum Humidity 53    
Precipitation  
Precipitation 0.00 in 0.01 in 0.24 in (1993)
Month to date precipitation 0.00 0.04  
Year to date precipitation 4.13 9.57  
Sea Level Pressure  
Sea Level Pressure 29.83 in    
Wind  
Wind Speed 7 mph (North)    
Max Wind Speed 17 mph    
Max Gust Speed 21 mph    
Visibility 10 miles    
Events      
T = Trace of Precipitation, MM = Missing Value Source: NWS Daily Summary

Daily Weather History Graph

Daily Weather History Graph

Search for Another Location

Airport or City:

Trip Planner

Search our weather history database for the weather conditions in past years. The results will help you decide how hot, cold, wet, or windy it might be!

Date:

Astronomy

Jun. 05, 2015 Rise Set
Actual Time 5:47 AM PDT 8:25 PM PDT
Civil Twilight 5:17 AM PDT 8:56 PM PDT
Nautical Twilight 4:38 AM PDT 9:34 PM PDT
Astronomical Twilight 3:56 AM PDT 10:17 PM PDT
Moon 11:07 PM PDT (6/5) 8:52 AM PDT (6/5)
Length of Visible Light 15h 39m
Length of Day
14h 38m
Waning Gibbous, 89% of the Moon is Illuminated
Jun 5
Waning Gibbous
Jun 9
Last Quarter
Jun 16
New
Jun 24
First Quarter
Jul 1
Full

Hourly Weather History & Observations

Time (PDT) Temp. Dew Point Humidity Pressure Visibility Wind Dir Wind Speed Gust Speed Precip Events Conditions
12:56 AM 57.9 °F 53.1 °F 84% 29.85 in 10.0 mi Calm Calm - N/A   Clear
1:56 AM 57.0 °F 51.1 °F 81% 29.84 in 10.0 mi SE 4.6 mph - N/A   Clear
2:56 AM 55.0 °F 50.0 °F 83% 29.83 in 10.0 mi SE 5.8 mph - N/A   Clear
3:56 AM 54.0 °F 50.0 °F 86% 29.83 in 10.0 mi SSE 3.5 mph - N/A   Clear
4:56 AM 54.0 °F 50.0 °F 86% 29.83 in 10.0 mi SE 5.8 mph - N/A   Clear
5:56 AM 54.0 °F 50.0 °F 86% 29.83 in 10.0 mi SE 6.9 mph - N/A   Clear
6:56 AM 55.9 °F 51.1 °F 84% 29.84 in 10.0 mi SSE 5.8 mph - N/A   Clear
7:56 AM 59.0 °F 51.1 °F 75% 29.85 in 10.0 mi South 5.8 mph - N/A   Clear
8:56 AM 62.1 °F 51.1 °F 67% 29.85 in 10.0 mi Calm Calm - N/A   Clear
9:56 AM 66.0 °F 52.0 °F 60% 29.84 in 10.0 mi SE 3.5 mph - N/A   Clear
10:56 AM 71.1 °F 53.1 °F 53% 29.83 in 10.0 mi NNW 9.2 mph - N/A   Clear
11:56 AM 72.0 °F 55.9 °F 57% 29.83 in 10.0 mi North 8.1 mph - N/A   Clear
12:56 PM 72.0 °F 55.9 °F 57% 29.82 in 10.0 mi North 9.2 mph - N/A   Clear
1:56 PM 73.0 °F 55.0 °F 53% 29.81 in 10.0 mi NNW 8.1 mph - N/A   Clear
2:56 PM 73.0 °F 57.0 °F 57% 29.81 in 10.0 mi North 11.5 mph - N/A   Clear
3:56 PM 73.0 °F 57.0 °F 57% 29.80 in 10.0 mi NNW 12.7 mph - N/A   Clear
4:56 PM 71.1 °F 55.9 °F 59% 29.81 in 10.0 mi NNW 12.7 mph - N/A   Clear
5:56 PM 69.1 °F 57.0 °F 65% 29.80 in 10.0 mi NNW 13.8 mph - N/A   Clear
6:56 PM 66.0 °F 55.9 °F 70% 29.81 in 10.0 mi NNW 11.5 mph - N/A   Clear
7:56 PM 64.9 °F 55.9 °F 73% 29.83 in 10.0 mi NNW 9.2 mph - N/A   Clear
8:56 PM 63.0 °F 55.9 °F 78% 29.85 in 10.0 mi NNW 4.6 mph - N/A   Clear
9:56 PM 62.1 °F 55.9 °F 80% 29.87 in 10.0 mi NW 5.8 mph - N/A   Clear
10:56 PM 61.0 °F 55.9 °F 83% 29.86 in 10.0 mi NNW 5.8 mph - N/A   Clear
11:48 PM 60.8 °F 55.4 °F 82% 29.85 in 10.0 mi North 6.9 mph - N/A   Mostly Cloudy
11:56 PM 60.1 °F 55.9 °F 86% 29.86 in 10.0 mi North 4.6 mph - N/A   Mostly Cloudy